When you browse on this site, cookies collect data to enhance your experience and personalize the content and advertising you see.
Visit our Privacy Policy to learn more. By continuing to use the site, you agree to this use of cookies and data.

Hourly Weather Aleksandrovka

Today, 10 July, Friday

Time Temperature Precipitation Wind Pressure Humidity
00:00 +11°C° 0 mm 1 mps 749 mmHg 91%
01:00 +9°C° 0 mm 2 mps 749 mmHg 91%
02:00 +9°C° 0 mm 2 mps 749 mmHg 91%
03:00 +9°C° 0 mm 2 mps 750 mmHg 91%
04:00 +9°C° 0 mm 2 mps 750 mmHg 90%
05:00 +10°C° 0 mm 2 mps 750 mmHg 90%
06:00 +13°C° 0 mm 2 mps 750 mmHg 81%
07:00 +15°C° 0 mm 2 mps 750 mmHg 72%
08:00 +17°C° 0 mm 2 mps 751 mmHg 64%
09:00 +18°C° 0 mm 2 mps 751 mmHg 58%
10:00 +20°C° 0 mm 2 mps 751 mmHg 53%
11:00 +21°C° 0 mm 3 mps 751 mmHg 48%
12:00 +21°C° 0 mm 3 mps 750 mmHg 48%
13:00 +21°C° 0 mm 3 mps 750 mmHg 48%
14:00 +22°C° 0 mm 3 mps 750 mmHg 48%
15:00 +21°C° 0.1 mm 3 mps 750 mmHg 53%
16:00 +21°C° 0.1 mm 3 mps 750 mmHg 57%
17:00 +20°C° 0.1 mm 3 mps 750 mmHg 62%
18:00 +19°C° 0 mm 2 mps 750 mmHg 66%
19:00 +18°C° 0 mm 2 mps 750 mmHg 69%
20:00 +17°C° 0 mm 2 mps 750 mmHg 73%
21:00 +17°C° 0 mm 2 mps 749 mmHg 72%
22:00 +17°C° 0 mm 3 mps 749 mmHg 71%
23:00 +17°C° 0 mm 3 mps 749 mmHg 70%

Tomorrow, 11 July, Saturday

Time Temperature Precipitation Wind Pressure Humidity
00:00 +17°C° 0.2 mm 3 mps 749 mmHg 75%
01:00 +17°C° 0.2 mm 4 mps 749 mmHg 79%
02:00 +17°C° 0.2 mm 4 mps 748 mmHg 83%
03:00 +17°C° 0.1 mm 4 mps 748 mmHg 86%
04:00 +17°C° 0.1 mm 4 mps 748 mmHg 89%
05:00 +17°C° 0.1 mm 4 mps 748 mmHg 92%
06:00 +16°C° 0 mm 5 mps 748 mmHg 90%
07:00 +17°C° 0 mm 5 mps 748 mmHg 88%
08:00 +19°C° 0 mm 5 mps 748 mmHg 85%
09:00 +21°C° 0 mm 5 mps 748 mmHg 81%
10:00 +22°C° 0 mm 5 mps 748 mmHg 77%
11:00 +25°C° 0 mm 5 mps 747 mmHg 72%
12:00 +26°C° 0.1 mm 6 mps 747 mmHg 70%
13:00 +27°C° 0.1 mm 6 mps 747 mmHg 68%
14:00 +28°C° 0.1 mm 6 mps 747 mmHg 65%
15:00 +27°C° 0.8 mm 6 mps 747 mmHg 72%
16:00 +26°C° 0.8 mm 5 mps 747 mmHg 80%
17:00 +25°C° 0.8 mm 5 mps 747 mmHg 87%
18:00 +23°C° 0.3 mm 4 mps 747 mmHg 89%
19:00 +22°C° 0.3 mm 3 mps 747 mmHg 91%
20:00 +21°C° 0.3 mm 3 mps 748 mmHg 93%
21:00 +20°C° 0 mm 2 mps 748 mmHg 91%
22:00 +19°C° 0 mm 2 mps 748 mmHg 89%
23:00 +18°C° 0 mm 2 mps 748 mmHg 87%

Day after tomorrow, 12 July, Sunday

Time Temperature Precipitation Wind Pressure Humidity
00:00 +17°C° 0 mm 2 mps 749 mmHg 87%
01:00 +16°C° 0 mm 2 mps 749 mmHg 87%
02:00 +15°C° 0 mm 1 mps 749 mmHg 87%
03:00 +15°C° 0 mm 1 mps 749 mmHg 87%
04:00 +15°C° 0 mm 1 mps 749 mmHg 86%
05:00 +15°C° 0 mm 1 mps 749 mmHg 86%
06:00 +16°C° 0 mm 1 mps 750 mmHg 81%
07:00 +16°C° 0 mm 1 mps 750 mmHg 75%
08:00 +18°C° 0 mm 1 mps 750 mmHg 70%
09:00 +19°C° 0 mm 1 mps 750 mmHg 68%
10:00 +19°C° 0 mm 1 mps 750 mmHg 67%
11:00 +19°C° 0 mm 1 mps 750 mmHg 66%
12:00 +19°C° 0 mm 2 mps 750 mmHg 65%
13:00 +19°C° 0 mm 2 mps 750 mmHg 65%
14:00 +19°C° 0 mm 2 mps 750 mmHg 65%
15:00 +18°C° 0 mm 2 mps 749 mmHg 68%
16:00 +18°C° 0 mm 3 mps 749 mmHg 71%
17:00 +17°C° 0 mm 3 mps 749 mmHg 73%
18:00 +17°C° 0 mm 3 mps 749 mmHg 74%
19:00 +16°C° 0 mm 3 mps 749 mmHg 75%
20:00 +16°C° 0 mm 3 mps 749 mmHg 76%
21:00 +14°C° 0 mm 3 mps 748 mmHg 78%
22:00 +15°C° 0 mm 2 mps 748 mmHg 81%
23:00 +14°C° 0 mm 2 mps 748 mmHg 84%

13 July, Monday

Time Temperature Precipitation Wind Pressure Humidity
00:00 +13°C° 0.1 mm 3 mps 748 mmHg 83%
01:00 +13°C° 0.1 mm 3 mps 747 mmHg 83%
02:00 +13°C° 0.1 mm 3 mps 747 mmHg 83%
03:00 +13°C° 0.3 mm 3 mps 747 mmHg 86%
04:00 +14°C° 0.3 mm 3 mps 746 mmHg 89%
05:00 +14°C° 0.3 mm 3 mps 746 mmHg 93%
06:00 +14°C° 0 mm 3 mps 746 mmHg 92%
07:00 +16°C° 0 mm 3 mps 745 mmHg 91%
08:00 +17°C° 0 mm 2 mps 745 mmHg 91%
09:00 +18°C° 0 mm 2 mps 745 mmHg 89%
10:00 +19°C° 0 mm 2 mps 745 mmHg 88%
11:00 +20°C° 0 mm 1 mps 744 mmHg 87%
12:00 +20°C° 0 mm 2 mps 744 mmHg 84%
13:00 +21°C° 0 mm 2 mps 743 mmHg 81%
14:00 +23°C° 0 mm 2 mps 743 mmHg 79%
15:00 +22°C° 0.2 mm 3 mps 742 mmHg 80%
16:00 +22°C° 0.2 mm 3 mps 742 mmHg 81%
17:00 +22°C° 0.2 mm 3 mps 742 mmHg 81%
18:00 +21°C° 1.2 mm 3 mps 741 mmHg 85%
19:00 +20°C° 1.2 mm 3 mps 741 mmHg 90%
20:00 +19°C° 1.2 mm 4 mps 741 mmHg 94%
21:00 +18°C° 1.2 mm 4 mps 741 mmHg 95%
22:00 +18°C° 1.2 mm 3 mps 740 mmHg 97%
23:00 +17°C° 1.2 mm 3 mps 740 mmHg 98%

14 July, Tuesday

Time Temperature Precipitation Wind Pressure Humidity
00:00 +17°C° 1.4 mm 4 mps 739 mmHg 98%
01:00 +17°C° 1.4 mm 4 mps 739 mmHg 98%
02:00 +17°C° 1.4 mm 4 mps 738 mmHg 98%
03:00 +17°C° 0.3 mm 4 mps 738 mmHg 98%
04:00 +17°C° 0.3 mm 4 mps 737 mmHg 98%
05:00 +17°C° 0.3 mm 4 mps 737 mmHg 98%
06:00 +18°C° 0.5 mm 3 mps 737 mmHg 98%
07:00 +18°C° 0.5 mm 3 mps 736 mmHg 98%
08:00 +18°C° 0.5 mm 2 mps 736 mmHg 98%
09:00 +18°C° 1 mm 2 mps 736 mmHg 98%
10:00 +19°C° 1 mm 2 mps 736 mmHg 97%
11:00 +19°C° 1 mm 2 mps 736 mmHg 97%
12:00 +19°C° 0.6 mm 2 mps 736 mmHg 96%
13:00 +19°C° 0.6 mm 2 mps 736 mmHg 95%
14:00 +19°C° 0.6 mm 2 mps 736 mmHg 95%
15:00 +19°C° 0.2 mm 2 mps 736 mmHg 94%
16:00 +19°C° 0.2 mm 2 mps 736 mmHg 94%
17:00 +19°C° 0.2 mm 2 mps 736 mmHg 93%
18:00 +19°C° 0 mm 2 mps 736 mmHg 94%
19:00 +18°C° 0 mm 2 mps 736 mmHg 95%
20:00 +18°C° 0 mm 2 mps 736 mmHg 96%
21:00 +17°C° 0.2 mm 2 mps 735 mmHg 97%
22:00 +17°C° 0.2 mm 2 mps 735 mmHg 98%
23:00 +17°C° 0.2 mm 2 mps 735 mmHg 98%

15 July, Wednesday

Time Temperature Precipitation Wind Pressure Humidity
00:00 +17°C° 0.3 mm 2 mps 735 mmHg 98%
01:00 +17°C° 0.3 mm 2 mps 735 mmHg 98%
02:00 +17°C° 0.3 mm 2 mps 735 mmHg 98%
03:00 +17°C° 1.1 mm 2 mps 735 mmHg 98%
04:00 +16°C° 1.1 mm 2 mps 734 mmHg 98%
05:00 +16°C° 1.1 mm 2 mps 734 mmHg 98%
06:00 +16°C° 2.3 mm 2 mps 734 mmHg 98%
07:00 +17°C° 2.3 mm 2 mps 734 mmHg 98%
08:00 +17°C° 2.3 mm 2 mps 734 mmHg 97%
09:00 +16°C° 2 mm 3 mps 735 mmHg 97%
10:00 +16°C° 2 mm 3 mps 735 mmHg 97%
11:00 +16°C° 2 mm 3 mps 735 mmHg 97%
12:00 +15°C° 1.1 mm 4 mps 735 mmHg 97%
13:00 +14°C° 1.1 mm 4 mps 736 mmHg 96%
14:00 +14°C° 1.1 mm 5 mps 736 mmHg 96%
15:00 +14°C° 0.7 mm 5 mps 737 mmHg 96%
16:00 +13°C° 0.7 mm 5 mps 737 mmHg 96%
17:00 +13°C° 0.7 mm 5 mps 737 mmHg 96%
18:00 +13°C° 0.4 mm 5 mps 738 mmHg 96%
19:00 +13°C° 0.4 mm 5 mps 738 mmHg 95%
20:00 +13°C° 0.4 mm 5 mps 739 mmHg 95%
21:00 +13°C° 0.1 mm 5 mps 739 mmHg 95%
22:00 +13°C° 0.1 mm 5 mps 739 mmHg 95%
23:00 +12°C° 0.1 mm 5 mps 739 mmHg 94%
Show more